• In Hungary
  • List of Countries
  • For 7 days
  • Water Temperature
  • Satellite Maps
  • Weather Map
  • News
  • Weather Widgets
  • user-avatar
    Login

    Hourly Weather Dili

    Today, 17 August, Thursday

    Time Temperature Precipitation Wind Pressure Humidity
    00:00 +25°C° 0 mm 1 mps 753 mmHg 88%
    01:00 +25°C° 0 mm 2 mps 753 mmHg 87%
    02:00 +24°C° 0 mm 2 mps 752 mmHg 87%
    03:00 +24°C° 0 mm 2 mps 752 mmHg 85%
    04:00 +24°C° 0 mm 2 mps 752 mmHg 83%
    05:00 +24°C° 0 mm 2 mps 752 mmHg 81%
    06:00 +26°C° 0 mm 2 mps 753 mmHg 73%
    07:00 +28°C° 0 mm 2 mps 753 mmHg 65%
    08:00 +30°C° 0 mm 2 mps 753 mmHg 55%
    09:00 +32°C° 0 mm 2 mps 753 mmHg 51%
    10:00 +34°C° 0 mm 3 mps 753 mmHg 48%
    11:00 +35°C° 0 mm 3 mps 753 mmHg 44%
    12:00 +35°C° 0 mm 3 mps 752 mmHg 46%
    13:00 +35°C° 0 mm 3 mps 752 mmHg 47%
    14:00 +34°C° 0 mm 3 mps 751 mmHg 50%
    15:00 +33°C° 0 mm 3 mps 752 mmHg 57%
    16:00 +31°C° 0 mm 2 mps 752 mmHg 64%
    17:00 +29°C° 0 mm 2 mps 752 mmHg 72%
    18:00 +28°C° 0 mm 2 mps 752 mmHg 77%
    19:00 +27°C° 0 mm 2 mps 752 mmHg 83%
    20:00 +26°C° 0 mm 1 mps 753 mmHg 89%
    21:00 +26°C° 0 mm 1 mps 753 mmHg 89%
    22:00 +26°C° 0 mm 2 mps 753 mmHg 88%
    23:00 +26°C° 0 mm 2 mps 753 mmHg 88%

    Tomorrow, 18 August, Friday

    Time Temperature Precipitation Wind Pressure Humidity
    00:00 +25°C° 0 mm 2 mps 753 mmHg 89%
    01:00 +25°C° 0 mm 2 mps 753 mmHg 89%
    02:00 +25°C° 0 mm 2 mps 752 mmHg 89%
    03:00 +25°C° 0 mm 2 mps 752 mmHg 89%
    04:00 +25°C° 0 mm 2 mps 753 mmHg 88%
    05:00 +25°C° 0 mm 2 mps 753 mmHg 88%
    06:00 +27°C° 0 mm 2 mps 753 mmHg 78%
    07:00 +28°C° 0 mm 2 mps 753 mmHg 69%
    08:00 +30°C° 0 mm 2 mps 754 mmHg 59%
    09:00 +33°C° 0 mm 3 mps 754 mmHg 52%
    10:00 +34°C° 0 mm 3 mps 753 mmHg 46%
    11:00 +36°C° 0 mm 4 mps 753 mmHg 39%
    12:00 +36°C° 0 mm 4 mps 753 mmHg 41%
    13:00 +35°C° 0 mm 4 mps 753 mmHg 43%
    14:00 +35°C° 0 mm 5 mps 752 mmHg 45%
    15:00 +34°C° 0 mm 4 mps 752 mmHg 51%
    16:00 +33°C° 0 mm 4 mps 752 mmHg 57%
    17:00 +30°C° 0 mm 4 mps 752 mmHg 63%
    18:00 +29°C° 0 mm 4 mps 753 mmHg 70%
    19:00 +27°C° 0 mm 3 mps 753 mmHg 76%
    20:00 +25°C° 0 mm 3 mps 754 mmHg 83%
    21:00 +25°C° 0 mm 3 mps 754 mmHg 79%
    22:00 +25°C° 0 mm 3 mps 754 mmHg 76%
    23:00 +25°C° 0 mm 3 mps 754 mmHg 73%

    Day after tomorrow, 19 August, Saturday

    Time Temperature Precipitation Wind Pressure Humidity
    00:00 +25°C° 0 mm 3 mps 754 mmHg 70%
    01:00 +25°C° 0 mm 2 mps 754 mmHg 68%
    02:00 +24°C° 0 mm 2 mps 754 mmHg 66%
    03:00 +24°C° 0 mm 2 mps 754 mmHg 65%
    04:00 +24°C° 0 mm 2 mps 754 mmHg 64%
    05:00 +24°C° 0 mm 2 mps 754 mmHg 63%
    06:00 +26°C° 0 mm 2 mps 754 mmHg 60%
    07:00 +28°C° 0 mm 2 mps 755 mmHg 58%
    08:00 +29°C° 0 mm 3 mps 755 mmHg 56%
    09:00 +31°C° 0 mm 3 mps 755 mmHg 54%
    10:00 +33°C° 0 mm 4 mps 755 mmHg 51%
    11:00 +34°C° 0 mm 4 mps 755 mmHg 49%
    12:00 +34°C° 0 mm 4 mps 754 mmHg 47%
    13:00 +35°C° 0 mm 4 mps 754 mmHg 44%
    14:00 +35°C° 0 mm 4 mps 753 mmHg 42%
    15:00 +33°C° 0 mm 4 mps 753 mmHg 46%
    16:00 +32°C° 0 mm 4 mps 753 mmHg 50%
    17:00 +29°C° 0 mm 4 mps 753 mmHg 55%
    18:00 +28°C° 0 mm 3 mps 754 mmHg 60%
    19:00 +26°C° 0 mm 3 mps 754 mmHg 65%
    20:00 +25°C° 0 mm 3 mps 755 mmHg 71%
    21:00 +25°C° 0 mm 3 mps 755 mmHg 73%
    22:00 +24°C° 0 mm 3 mps 755 mmHg 75%
    23:00 +24°C° 0 mm 3 mps 755 mmHg 78%

    20 August, Sunday

    Time Temperature Precipitation Wind Pressure Humidity
    00:00 +24°C° 0 mm 3 mps 755 mmHg 75%
    01:00 +24°C° 0 mm 3 mps 754 mmHg 73%
    02:00 +24°C° 0 mm 3 mps 754 mmHg 71%
    03:00 +24°C° 0 mm 3 mps 754 mmHg 70%
    04:00 +24°C° 0 mm 3 mps 754 mmHg 69%
    05:00 +24°C° 0 mm 3 mps 754 mmHg 67%
    06:00 +25°C° 0 mm 3 mps 755 mmHg 67%
    07:00 +27°C° 0 mm 3 mps 755 mmHg 67%
    08:00 +29°C° 0 mm 4 mps 756 mmHg 68%
    09:00 +30°C° 0 mm 4 mps 755 mmHg 63%
    10:00 +32°C° 0 mm 4 mps 755 mmHg 59%
    11:00 +33°C° 0 mm 5 mps 755 mmHg 54%
    12:00 +33°C° 0 mm 5 mps 754 mmHg 53%
    13:00 +34°C° 0 mm 5 mps 753 mmHg 52%
    14:00 +34°C° 0 mm 5 mps 753 mmHg 50%
    15:00 +32°C° 0 mm 5 mps 752 mmHg 55%
    16:00 +30°C° 0 mm 5 mps 752 mmHg 60%
    17:00 +29°C° 0 mm 5 mps 752 mmHg 65%
    18:00 +27°C° 0 mm 5 mps 753 mmHg 71%
    19:00 +26°C° 0 mm 5 mps 754 mmHg 77%
    20:00 +23°C° 0 mm 5 mps 754 mmHg 84%
    21:00 +23°C° 0 mm 4 mps 754 mmHg 84%
    22:00 +23°C° 0 mm 4 mps 754 mmHg 83%
    23:00 +23°C° 0 mm 4 mps 754 mmHg 83%

    21 August, Monday

    Time Temperature Precipitation Wind Pressure Humidity
    00:00 +23°C° 0 mm 4 mps 754 mmHg 83%
    01:00 +22°C° 0 mm 4 mps 753 mmHg 82%
    02:00 +22°C° 0 mm 3 mps 753 mmHg 82%
    03:00 +22°C° 0 mm 3 mps 753 mmHg 77%
    04:00 +22°C° 0 mm 3 mps 753 mmHg 72%
    05:00 +22°C° 0 mm 3 mps 753 mmHg 67%
    06:00 +25°C° 0 mm 3 mps 753 mmHg 65%
    07:00 +27°C° 0 mm 3 mps 754 mmHg 63%
    08:00 +29°C° 0 mm 4 mps 754 mmHg 61%
    09:00 +30°C° 0 mm 4 mps 754 mmHg 57%
    10:00 +33°C° 0 mm 4 mps 754 mmHg 53%
    11:00 +34°C° 0 mm 5 mps 754 mmHg 49%
    12:00 +34°C° 0 mm 5 mps 753 mmHg 52%
    13:00 +33°C° 0 mm 5 mps 752 mmHg 55%
    14:00 +33°C° 0 mm 5 mps 752 mmHg 57%
    15:00 +32°C° 0 mm 5 mps 752 mmHg 61%
    16:00 +30°C° 0 mm 5 mps 752 mmHg 65%
    17:00 +29°C° 0 mm 6 mps 752 mmHg 69%
    18:00 +28°C° 0 mm 5 mps 753 mmHg 75%
    19:00 +26°C° 0 mm 5 mps 753 mmHg 81%
    20:00 +25°C° 0 mm 4 mps 754 mmHg 87%
    21:00 +25°C° 0 mm 4 mps 754 mmHg 86%
    22:00 +23°C° 0 mm 4 mps 754 mmHg 84%
    23:00 +23°C° 0 mm 4 mps 754 mmHg 83%

    22 August, Tuesday

    Time Temperature Precipitation Wind Pressure Humidity
    00:00 +23°C° 0 mm 4 mps 753 mmHg 81%
    01:00 +23°C° 0 mm 4 mps 753 mmHg 79%
    02:00 +22°C° 0 mm 3 mps 753 mmHg 77%
    03:00 +22°C° 0 mm 3 mps 753 mmHg 73%
    04:00 +22°C° 0 mm 3 mps 753 mmHg 69%
    05:00 +22°C° 0 mm 3 mps 753 mmHg 64%
    06:00 +25°C° 0 mm 3 mps 754 mmHg 60%
    07:00 +27°C° 0 mm 3 mps 754 mmHg 56%
    08:00 +29°C° 0 mm 4 mps 754 mmHg 52%
    09:00 +32°C° 0 mm 4 mps 754 mmHg 51%
    10:00 +33°C° 0 mm 5 mps 754 mmHg 50%
    11:00 +35°C° 0 mm 5 mps 754 mmHg 48%
    12:00 +34°C° 0 mm 5 mps 753 mmHg 52%
    13:00 +33°C° 0 mm 5 mps 753 mmHg 56%
    14:00 +33°C° 0 mm 6 mps 752 mmHg 60%
    15:00 +32°C° 0 mm 6 mps 752 mmHg 63%
    16:00 +30°C° 0 mm 6 mps 752 mmHg 66%
    17:00 +29°C° 0 mm 6 mps 752 mmHg 69%
    18:00 +28°C° 0 mm 5 mps 753 mmHg 75%
    19:00 +27°C° 0 mm 5 mps 754 mmHg 80%
    20:00 +25°C° 0 mm 5 mps 754 mmHg 86%
    21:00 +25°C° 0 mm 4 mps 754 mmHg 84%
    22:00 +25°C° 0 mm 4 mps 754 mmHg 83%
    23:00 +23°C° 0 mm 4 mps 754 mmHg 82%
    Show more